Tracking 22283 objects as of 28-Jan-2021
HD Live streaming from Space Station
objects crossing your sky now

METEOR 2-8 DEB

Track METEOR 2-8 DEB now!
10-day predictions


NORAD ID: 36327
Int'l Code: 1982-025M
Perigee: 877.0 km
Apogee: 890.6 km
Inclination: 82.5 °
Period: 102.5 minutes
Semi major axis: 7254 km
RCS: 0.0052 m2 (small)
Launch date: March 25, 1982
Source: Commonwealth of Independent States (former USSR) (CIS)
Launch site: PLESETSK MISSILE AND SPACE COMPLEX (PKMTR)

Note: This is SATELLITE DEBRIS
aabbcc
Your satellite tracking list
Your tracking list is empty




NASA's NSSDC Master Catalog

Two Line Element Set (TLE):
1 36327U 82025M   21026.47059492  .00000784  00000-0  47778-3 0  9994
2 36327  82.5132  97.0189 0009337  36.0343 324.1456 14.04969237860193
Source of the keplerian elements: AFSPC